Terug naar catalogus

OPTUS B1

AUSSAT B1

ActiefCommunicatieGEO
NORAD 22087·PAYLOAD·🇦🇺 Australia

Gelanceerd Aug 13, 1992 vanaf Xichang Satellite Launch Center

Loading…

TLE

VersSource: Space-Track

Epoch: Sep 14, 2026, 13:49 UTC

1 22087U 92054A   26257.57579435 -.00000164  00000-0  00000-0 0  9998
2 22087  13.0553  23.4255 0009848 140.3977  40.5106  0.99207261135594

Volg OPTUS B1 in realtime met AllMySat

Download on the App Store